Time,TemperatureF,DewpointF,PressureIn,WindDirection,WindDirectionDegrees,WindSpeedMPH,WindSpeedGustMPH,Humidity,HourlyPrecipIn,Conditions,Clouds,dailyrainin,SoftwareType,DateUTC
2013-03-17 00:02:00,28.0,-99.9,29.96,West,265,3.0,7.0,0,-99.99,,,-99.99,,2013-03-17 07:02:00,
2013-03-17 00:42:00,28.0,-99.9,29.97,SW,225,2.0,9.0,0,-99.99,,,-99.99,,2013-03-17 07:42:00,
2013-03-17 00:52:00,28.0,-99.9,29.97,SW,225,2.0,9.0,0,-99.99,,,-99.99,,2013-03-17 07:52:00,
2013-03-17 01:03:00,28.0,-99.9,29.98,SSW,200,2.0,7.0,0,-99.99,,,-99.99,,2013-03-17 08:03:00,
2013-03-17 01:13:00,28.0,-99.9,29.98,SSW,200,2.0,7.0,0,-99.99,,,-99.99,,2013-03-17 08:13:00,
2013-03-17 01:22:00,28.0,-99.9,29.98,SSW,200,2.0,7.0,0,-99.99,,,-99.99,,2013-03-17 08:22:00,
2013-03-17 01:42:00,28.0,-99.9,30.01,WNW,300,1.0,5.0,0,-99.99,,,-99.99,,2013-03-17 08:42:00,
2013-03-17 01:52:00,28.0,-99.9,30.01,WNW,300,1.0,5.0,0,-99.99,,,-99.99,,2013-03-17 08:52:00,
2013-03-17 02:03:00,28.0,-99.9,30.01,WNW,300,1.0,5.0,0,-99.99,,,-99.99,,2013-03-17 09:03:00,
2013-03-17 02:13:00,27.0,-99.9,30.00,WNW,300,3.0,5.0,0,-99.99,,,-99.99,,2013-03-17 09:13:00,
2013-03-17 02:22:00,26.0,-99.9,30.02,NNW,330,3.0,6.0,0,-99.99,,,-99.99,,2013-03-17 09:22:00,
2013-03-17 02:33:00,26.0,-99.9,30.02,NNW,330,3.0,6.0,0,-99.99,,,-99.99,,2013-03-17 09:33:00,
2013-03-17 02:43:00,26.0,-99.9,30.02,NNW,330,3.0,6.0,0,-99.99,,,-99.99,,2013-03-17 09:43:00,
2013-03-17 02:53:00,26.0,-99.9,30.02,NNW,330,3.0,6.0,0,-99.99,,,-99.99,,2013-03-17 09:53:00,
2013-03-17 03:03:00,26.0,-99.9,30.02,NNE,20,5.0,9.0,0,-99.99,,,-99.99,,2013-03-17 10:03:00,
2013-03-17 03:13:00,26.0,-99.9,30.03,North,350,2.0,9.0,0,-99.99,,,-99.99,,2013-03-17 10:13:00,
2013-03-17 03:23:00,25.0,-99.9,30.04,North,350,2.0,7.0,0,-99.99,,,-99.99,,2013-03-17 10:23:00,
2013-03-17 03:33:00,25.0,-99.9,30.04,North,350,2.0,7.0,0,-99.99,,,-99.99,,2013-03-17 10:33:00,
2013-03-17 03:42:00,25.0,-99.9,30.05,WNW,290,3.0,13.0,0,-99.99,,,-99.99,,2013-03-17 10:42:00,
2013-03-17 03:53:00,25.0,-99.9,30.05,WNW,290,3.0,13.0,0,-99.99,,,-99.99,,2013-03-17 10:53:00,
2013-03-17 04:03:00,25.0,-99.9,30.06,WNW,285,3.0,10.0,0,-99.99,,,-99.99,,2013-03-17 11:03:00,
2013-03-17 04:12:00,25.0,-99.9,30.06,WNW,285,3.0,10.0,0,-99.99,,,-99.99,,2013-03-17 11:12:00,
2013-03-17 04:22:00,25.0,-99.9,30.06,ESE,115,0.0,3.0,0,-99.99,,,-99.99,,2013-03-17 11:22:00,
2013-03-17 04:32:00,25.0,-99.9,30.06,ESE,115,0.0,3.0,0,-99.99,,,-99.99,,2013-03-17 11:32:00,
2013-03-17 04:43:00,25.0,-99.9,30.06,NW,305,3.0,3.0,0,-99.99,,,-99.99,,2013-03-17 11:43:00,
2013-03-17 04:52:00,25.0,-99.9,30.06,NW,305,3.0,3.0,0,-99.99,,,-99.99,,2013-03-17 11:52:00,
2013-03-17 05:02:00,25.0,-99.9,30.06,NW,310,5.0,12.0,0,-99.99,,,-99.99,,2013-03-17 12:02:00,
2013-03-17 05:12:00,24.0,-99.9,30.07,West,265,5.0,12.0,0,-99.99,,,-99.99,,2013-03-17 12:12:00,
2013-03-17 05:22:00,24.0,-99.9,30.07,NW,325,5.0,13.0,0,-99.99,,,-99.99,,2013-03-17 12:22:00,
2013-03-17 05:33:00,24.0,-99.9,30.07,NW,325,5.0,13.0,0,-99.99,,,-99.99,,2013-03-17 12:33:00,
2013-03-17 05:43:00,24.0,-99.9,30.08,West,275,6.0,12.0,0,-99.99,,,-99.99,,2013-03-17 12:43:00,
2013-03-17 05:52:00,24.0,-99.9,30.08,West,275,6.0,12.0,0,-99.99,,,-99.99,,2013-03-17 12:52:00,
2013-03-17 06:02:00,24.0,-99.9,30.09,NNW,340,0.0,7.0,0,-99.99,,,-99.99,,2013-03-17 13:02:00,
2013-03-17 06:13:00,23.0,-99.9,30.09,WNW,295,0.0,6.0,0,-99.99,,,-99.99,,2013-03-17 13:13:00,
2013-03-17 06:22:00,23.0,-99.9,30.10,South,175,2.0,6.0,0,-99.99,,,-99.99,,2013-03-17 13:22:00,
2013-03-17 06:33:00,23.0,-99.9,30.10,South,175,2.0,6.0,0,-99.99,,,-99.99,,2013-03-17 13:33:00,
2013-03-17 06:43:00,23.0,-99.9,30.10,South,175,2.0,6.0,0,-99.99,,,-99.99,,2013-03-17 13:43:00,
2013-03-17 06:53:00,23.0,-99.9,30.11,WSW,245,0.0,5.0,0,-99.99,,,-99.99,,2013-03-17 13:53:00,
2013-03-17 07:02:00,23.0,-99.9,30.11,WSW,250,1.0,7.0,0,-99.99,,,-99.99,,2013-03-17 14:02:00,
2013-03-17 07:12:00,23.0,-99.9,30.12,West,270,5.0,10.0,0,-99.99,,,-99.99,,2013-03-17 14:12:00,
2013-03-17 07:22:00,23.0,-99.9,30.12,West,270,5.0,10.0,0,-99.99,,,-99.99,,2013-03-17 14:22:00,
2013-03-17 07:33:00,23.0,-99.9,30.11,SSE,160,3.0,7.0,0,-99.99,,,-99.99,,2013-03-17 14:33:00,
2013-03-17 07:43:00,23.0,-99.9,30.12,South,180,2.0,7.0,0,-99.99,,,-99.99,,2013-03-17 14:43:00,
2013-03-17 07:53:00,23.0,-99.9,30.12,South,180,2.0,7.0,0,-99.99,,,-99.99,,2013-03-17 14:53:00,
2013-03-17 08:02:00,23.0,-99.9,30.13,SSW,210,1.0,3.0,0,-99.99,,,-99.99,,2013-03-17 15:02:00,
2013-03-17 08:12:00,23.0,-99.9,30.14,WNW,285,0.0,3.0,0,-99.99,,,-99.99,,2013-03-17 15:12:00,
2013-03-17 08:23:00,23.0,-99.9,30.14,West,280,3.0,6.0,0,-99.99,,,-99.99,,2013-03-17 15:23:00,
2013-03-17 08:33:00,23.0,-99.9,30.14,West,280,3.0,6.0,0,-99.99,,,-99.99,,2013-03-17 15:33:00,
2013-03-17 08:43:00,24.0,-99.9,30.15,SW,225,3.0,9.0,0,-99.99,,,-99.99,,2013-03-17 15:43:00,
2013-03-17 08:53:00,24.0,-99.9,30.15,SW,225,3.0,9.0,0,-99.99,,,-99.99,,2013-03-17 15:53:00,
2013-03-17 09:03:00,24.0,-99.9,30.15,SW,225,3.0,9.0,0,-99.99,,,-99.99,,2013-03-17 16:03:00,
2013-03-17 09:13:00,25.0,-99.9,30.16,South,175,1.0,8.0,0,-99.99,,,-99.99,,2013-03-17 16:13:00,
2013-03-17 09:23:00,25.0,-99.9,30.16,WNW,285,1.0,7.0,0,-99.99,,,-99.99,,2013-03-17 16:23:00,
2013-03-17 09:34:00,25.0,-99.9,30.16,WNW,285,1.0,7.0,0,-99.99,,,-99.99,,2013-03-17 16:34:00,
2013-03-17 09:43:00,25.0,-99.9,30.16,WNW,285,1.0,7.0,0,-99.99,,,-99.99,,2013-03-17 16:43:00,
2013-03-17 09:53:00,25.0,-99.9,30.17,WNW,295,3.0,7.0,0,-99.99,,,-99.99,,2013-03-17 16:53:00,
2013-03-17 10:03:00,26.0,-99.9,30.17,WSW,240,3.0,8.0,0,-99.99,,,-99.99,,2013-03-17 17:03:00,
2013-03-17 10:12:00,27.0,-99.9,30.18,SSW,210,5.0,13.0,0,-99.99,,,-99.99,,2013-03-17 17:12:00,
2013-03-17 10:22:00,28.0,-99.9,30.19,West,280,7.0,14.0,0,-99.99,,,-99.99,,2013-03-17 17:22:00,
2013-03-17 10:33:00,28.0,-99.9,30.19,West,280,7.0,14.0,0,-99.99,,,-99.99,,2013-03-17 17:33:00,
2013-03-17 10:42:00,29.0,-99.9,30.19,WNW,285,6.0,14.0,0,-99.99,,,-99.99,,2013-03-17 17:42:00,
2013-03-17 10:53:00,29.0,-99.9,30.19,WNW,285,6.0,14.0,0,-99.99,,,-99.99,,2013-03-17 17:53:00,
2013-03-17 11:02:00,29.0,-99.9,30.19,WNW,285,7.0,12.0,0,-99.99,,,-99.99,,2013-03-17 18:02:00,
2013-03-17 11:13:00,29.0,-99.9,30.20,SW,215,3.0,12.0,0,-99.99,,,-99.99,,2013-03-17 18:13:00,
2013-03-17 11:22:00,29.0,-99.9,30.20,WSW,250,5.0,9.0,0,-99.99,,,-99.99,,2013-03-17 18:22:00,
2013-03-17 11:32:00,29.0,-99.9,30.20,WSW,250,5.0,9.0,0,-99.99,,,-99.99,,2013-03-17 18:32:00,
2013-03-17 11:42:00,30.0,-99.9,30.20,West,265,5.0,12.0,0,-99.99,,,-99.99,,2013-03-17 18:42:00,
2013-03-17 11:52:00,30.0,-99.9,30.20,West,265,5.0,12.0,0,-99.99,,,-99.99,,2013-03-17 18:52:00,
2013-03-17 12:02:00,30.0,-99.9,30.20,West,265,5.0,12.0,0,-99.99,,,-99.99,,2013-03-17 19:02:00,
2013-03-17 12:12:00,30.0,-99.9,30.21,West,270,8.0,12.0,0,-99.99,,,-99.99,,2013-03-17 19:12:00,
2013-03-17 12:23:00,30.0,-99.9,30.21,West,270,8.0,12.0,0,-99.99,,,-99.99,,2013-03-17 19:23:00,
2013-03-17 12:33:00,30.0,-99.9,30.21,West,260,2.0,16.0,0,-99.99,,,-99.99,,2013-03-17 19:33:00,
2013-03-17 12:42:00,30.0,-99.9,30.21,West,280,6.0,13.0,0,-99.99,,,-99.99,,2013-03-17 19:42:00,
2013-03-17 12:53:00,30.0,-99.9,30.21,West,280,6.0,13.0,0,-99.99,,,-99.99,,2013-03-17 19:53:00,
2013-03-17 13:02:00,30.0,-99.9,30.20,WSW,245,5.0,12.0,0,-99.99,,,-99.99,,2013-03-17 20:02:00,
2013-03-17 13:12:00,31.0,-99.9,30.20,WNW,285,8.0,10.0,0,-99.99,,,-99.99,,2013-03-17 20:12:00,
2013-03-17 13:23:00,31.0,-99.9,30.20,WSW,240,6.0,12.0,0,-99.99,,,-99.99,,2013-03-17 20:23:00,
2013-03-17 13:33:00,31.0,-99.9,30.20,WSW,240,6.0,12.0,0,-99.99,,,-99.99,,2013-03-17 20:33:00,
2013-03-17 13:43:00,32.0,-99.9,30.20,WSW,240,12.0,12.0,0,-99.99,,,-99.99,,2013-03-17 20:43:00,
2013-03-17 13:52:00,32.0,-99.9,30.20,WSW,240,12.0,12.0,0,-99.99,,,-99.99,,2013-03-17 20:52:00,
2013-03-17 14:03:00,32.0,-99.9,30.20,West,280,3.0,14.0,0,-99.99,,,-99.99,,2013-03-17 21:03:00,
2013-03-17 14:12:00,33.0,-99.9,30.20,West,280,10.0,13.0,0,-99.99,,,-99.99,,2013-03-17 21:12:00,
2013-03-17 14:23:00,34.0,-99.9,30.19,NW,305,6.0,10.0,0,-99.99,,,-99.99,,2013-03-17 21:23:00,
2013-03-17 14:33:00,34.0,-99.9,30.19,NW,305,6.0,10.0,0,-99.99,,,-99.99,,2013-03-17 21:33:00,
2013-03-17 14:43:00,34.0,-99.9,30.19,WNW,290,9.0,14.0,0,-99.99,,,-99.99,,2013-03-17 21:43:00,
2013-03-17 14:53:00,34.0,-99.9,30.19,WNW,290,9.0,14.0,0,-99.99,,,-99.99,,2013-03-17 21:53:00,
2013-03-17 15:03:00,35.0,-99.9,30.19,West,275,14.0,14.0,0,-99.99,,,-99.99,,2013-03-17 22:03:00,
2013-03-17 15:13:00,34.0,-99.9,30.18,WNW,290,10.0,18.0,0,-99.99,,,-99.99,,2013-03-17 22:13:00,
2013-03-17 15:23:00,34.0,-99.9,30.18,WNW,290,10.0,18.0,0,-99.99,,,-99.99,,2013-03-17 22:23:00,
2013-03-17 15:33:00,35.0,-99.9,30.18,WNW,295,8.0,13.0,0,-99.99,,,-99.99,,2013-03-17 22:33:00,
2013-03-17 15:42:00,36.0,-99.9,30.18,WNW,290,6.0,12.0,0,-99.99,,,-99.99,,2013-03-17 22:42:00,
2013-03-17 15:53:00,36.0,-99.9,30.18,WNW,290,6.0,12.0,0,-99.99,,,-99.99,,2013-03-17 22:53:00,
2013-03-17 16:03:00,36.0,-99.9,30.18,NW,325,3.0,13.0,0,-99.99,,,-99.99,,2013-03-17 23:03:00,
2013-03-17 16:13:00,36.0,-99.9,30.18,WNW,295,5.0,14.0,0,-99.99,,,-99.99,,2013-03-17 23:13:00,
2013-03-17 16:23:00,35.0,-99.9,30.18,NW,305,3.0,13.0,0,-99.99,,,-99.99,,2013-03-17 23:23:00,
2013-03-17 16:33:00,35.0,-99.9,30.18,NW,305,3.0,13.0,0,-99.99,,,-99.99,,2013-03-17 23:33:00,
2013-03-17 16:43:00,35.0,-99.9,30.18,West,270,5.0,10.0,0,-99.99,,,-99.99,,2013-03-17 23:43:00,
2013-03-17 16:53:00,35.0,-99.9,30.18,West,270,5.0,10.0,0,-99.99,,,-99.99,,2013-03-17 23:53:00,
2013-03-17 17:03:00,35.0,-99.9,30.18,WNW,290,6.0,13.0,0,-99.99,,,-99.99,,2013-03-18 00:03:00,
2013-03-17 17:13:00,34.0,-99.9,30.19,NW,320,3.0,10.0,0,-99.99,,,-99.99,,2013-03-18 00:13:00,
2013-03-17 17:22:00,34.0,-99.9,30.19,West,280,2.0,10.0,0,-99.99,,,-99.99,,2013-03-18 00:22:00,
2013-03-17 17:33:00,34.0,-99.9,30.19,West,280,2.0,10.0,0,-99.99,,,-99.99,,2013-03-18 00:33:00,
2013-03-17 17:42:00,34.0,-99.9,30.19,WNW,285,6.0,13.0,0,-99.99,,,-99.99,,2013-03-18 00:42:00,
2013-03-17 17:53:00,34.0,-99.9,30.19,WNW,285,6.0,13.0,0,-99.99,,,-99.99,,2013-03-18 00:53:00,
2013-03-17 18:02:00,33.0,-99.9,30.19,West,280,6.0,12.0,0,-99.99,,,-99.99,,2013-03-18 01:02:00,
2013-03-17 18:13:00,33.0,-99.9,30.19,West,275,3.0,8.0,0,-99.99,,,-99.99,,2013-03-18 01:13:00,
2013-03-17 18:22:00,33.0,-99.9,30.19,West,275,3.0,8.0,0,-99.99,,,-99.99,,2013-03-18 01:22:00,
2013-03-17 18:33:00,33.0,-99.9,30.19,West,280,3.0,13.0,0,-99.99,,,-99.99,,2013-03-18 01:33:00,
2013-03-17 18:42:00,33.0,-99.9,30.19,WNW,295,3.0,12.0,0,-99.99,,,-99.99,,2013-03-18 01:42:00,
2013-03-17 18:52:00,33.0,-99.9,30.19,WNW,295,3.0,12.0,0,-99.99,,,-99.99,,2013-03-18 01:52:00,
2013-03-17 19:02:00,34.0,-99.9,30.19,NW,310,6.0,14.0,0,-99.99,,,-99.99,,2013-03-18 02:02:00,
2013-03-17 19:12:00,33.0,-99.9,30.19,West,265,8.0,13.0,0,-99.99,,,-99.99,,2013-03-18 02:12:00,
2013-03-17 19:22:00,31.0,-99.9,30.20,WSW,255,6.0,14.0,0,-99.99,,,-99.99,,2013-03-18 02:22:00,
2013-03-17 19:32:00,31.0,-99.9,30.20,WSW,255,6.0,14.0,0,-99.99,,,-99.99,,2013-03-18 02:32:00,
2013-03-17 19:42:00,29.0,-99.9,30.20,West,275,1.0,8.0,0,-99.99,,,-99.99,,2013-03-18 02:42:00,
2013-03-17 19:52:00,29.0,-99.9,30.20,West,275,1.0,8.0,0,-99.99,,,-99.99,,2013-03-18 02:52:00,
2013-03-17 20:03:00,29.0,-99.9,30.20,WNW,295,1.0,7.0,0,-99.99,,,-99.99,,2013-03-18 03:03:00,
2013-03-17 20:12:00,28.0,-99.9,30.20,SW,235,2.0,6.0,0,-99.99,,,-99.99,,2013-03-18 03:12:00,
2013-03-17 20:22:00,28.0,-99.9,30.20,West,280,0.0,3.0,0,-99.99,,,-99.99,,2013-03-18 03:22:00,
2013-03-17 20:33:00,28.0,-99.9,30.20,West,280,0.0,3.0,0,-99.99,,,-99.99,,2013-03-18 03:33:00,
2013-03-17 20:42:00,28.0,-99.9,30.20,West,280,0.0,3.0,0,-99.99,,,-99.99,,2013-03-18 03:42:00,
2013-03-17 20:53:00,27.0,-99.9,30.20,SSE,160,3.0,3.0,0,-99.99,,,-99.99,,2013-03-18 03:53:00,
2013-03-17 21:03:00,27.0,-99.9,30.21,SE,140,1.0,3.0,0,-99.99,,,-99.99,,2013-03-18 04:03:00,
2013-03-17 21:13:00,27.0,-99.9,30.21,WSW,255,0.0,2.0,0,-99.99,,,-99.99,,2013-03-18 04:13:00,
2013-03-17 21:23:00,27.0,-99.9,30.21,WSW,245,0.0,2.0,0,-99.99,,,-99.99,,2013-03-18 04:23:00,
2013-03-17 21:33:00,27.0,-99.9,30.21,WSW,245,0.0,2.0,0,-99.99,,,-99.99,,2013-03-18 04:33:00,
2013-03-17 21:42:00,27.0,-99.9,30.21,SE,145,1.0,2.0,0,-99.99,,,-99.99,,2013-03-18 04:42:00,
2013-03-17 21:53:00,27.0,-99.9,30.21,SE,145,1.0,2.0,0,-99.99,,,-99.99,,2013-03-18 04:53:00,
2013-03-17 22:03:00,27.0,-99.9,30.21,South,170,1.0,3.0,0,-99.99,,,-99.99,,2013-03-18 05:03:00,
2013-03-17 22:12:00,28.0,-99.9,30.21,SSE,160,2.0,5.0,0,-99.99,,,-99.99,,2013-03-18 05:12:00,
2013-03-17 22:23:00,28.0,-99.9,30.21,SSE,150,2.0,6.0,0,-99.99,,,-99.99,,2013-03-18 05:23:00,
2013-03-17 22:32:00,28.0,-99.9,30.21,SSE,150,2.0,6.0,0,-99.99,,,-99.99,,2013-03-18 05:32:00,
2013-03-17 22:43:00,28.0,-99.9,30.20,SSW,210,0.0,3.0,0,-99.99,,,-99.99,,2013-03-18 05:43:00,
2013-03-17 22:52:00,28.0,-99.9,30.20,SSW,210,0.0,3.0,0,-99.99,,,-99.99,,2013-03-18 05:52:00,
2013-03-17 23:02:00,28.0,-99.9,30.21,SSW,205,2.0,5.0,0,-99.99,,,-99.99,,2013-03-18 06:02:00,
2013-03-17 23:12:00,28.0,-99.9,30.20,SSW,195,2.0,6.0,0,-99.99,,,-99.99,,2013-03-18 06:12:00,
2013-03-17 23:22:00,28.0,-99.9,30.21,West,280,0.0,6.0,0,-99.99,,,-99.99,,2013-03-18 06:22:00,
2013-03-17 23:32:00,28.0,-99.9,30.21,West,280,0.0,6.0,0,-99.99,,,-99.99,,2013-03-18 06:32:00,
2013-03-17 23:42:00,28.0,-99.9,30.21,WSW,250,0.0,5.0,0,-99.99,,,-99.99,,2013-03-18 06:42:00,
2013-03-17 23:43:00,28.0,-99.9,30.21,SE,140,2.0,2.0,0,-99.99,,,-99.99,,2013-03-18 06:43:00,
2013-03-17 23:53:00,28.0,-99.9,30.21,WSW,250,0.0,5.0,0,-99.99,,,-99.99,,2013-03-18 06:53:00,